Date String (YYYY-MM-DD hh:mm:ss) UTC,Instrument flags,Ambient pressure (hPa),Sample flow (lpm),Bypass flow (lpm),Sample temperature (°C),Ambient temperature (°C),ASC tube jacket temperature (°C),LED temperature (°C),Box temperature (°C),Sample RH (%),Span deviation,Mass concentration (μg/m³),Mass concentration (μg/m³),Mass concentration (μg/m³)
DateTimeUTC,F1_M11,P_M11,Q1_M11,Q2_M11,T1_M11,T2_M11,T3_M11,T4_M11,T5_M11,U1_M11,ZSPAN_M11,X0_M11,X2_M11,X1_M11
2022-05-27 21:00:00,,0821.4,5.00,0.00,29.1,28.2,00.0,37.9,31.1,14.3,0000.0,0010.63,0003.72,0002.71
2022-05-27 21:01:00,,0821.4,5.01,0.00,29.2,28.1,00.0,37.9,31.1,15.3,0000.0,0010.63,0003.74,0002.73
2022-05-27 21:02:00,,0821.4,5.00,0.00,29.1,27.4,00.0,37.8,30.9,16.0,0000.0,0010.64,0003.76,0002.73
2022-05-27 21:03:00,,0821.4,5.00,0.00,29.0,26.9,00.0,37.8,30.7,15.0,0000.0,0010.78,0003.75,0002.73
2022-05-27 21:04:00,,0821.4,5.00,0.00,29.0,26.9,00.0,37.8,30.7,14.4,0000.0,0011.78,0003.73,0002.73
2022-05-27 21:05:00,,0821.4,5.00,0.00,28.9,27.0,00.0,37.8,30.7,15.2,0000.0,0012.18,0003.72,0002.74
2022-05-27 21:06:00,,0821.4,5.00,0.00,28.9,27.1,00.0,37.8,30.7,14.7,0000.0,0013.27,0003.75,0002.75
2022-05-27 21:07:00,,0821.4,5.00,0.00,28.9,27.3,00.0,37.8,30.8,14.8,0000.0,0013.47,0003.75,0002.76
2022-05-27 21:08:00,,0821.4,5.00,0.00,29.0,27.5,00.0,37.8,30.9,14.3,0000.0,0014.11,0003.77,0002.78
2022-05-27 21:09:00,,0821.4,4.99,0.00,29.0,27.7,00.0,37.8,30.9,14.7,0000.0,0014.05,0003.74,0002.79
2022-05-27 21:10:00,,0821.4,5.00,0.00,29.0,27.9,00.0,37.8,31.0,14.9,0000.0,0015.17,0003.77,0002.79
2022-05-27 21:11:00,,0821.4,4.98,0.00,29.1,28.1,00.0,37.8,31.1,14.4,0000.0,0015.84,0003.82,0002.79
2022-05-27 21:12:00,,0821.3,5.00,0.00,29.1,28.2,00.0,37.9,31.1,14.3,0000.0,0017.31,0003.87,0002.80
2022-05-27 21:13:00,,0821.3,5.01,0.00,29.1,27.6,00.0,37.8,31.0,13.1,0000.0,0017.56,0003.91,0002.81
2022-05-27 21:14:00,,0821.3,4.99,0.00,29.0,26.8,00.0,37.8,30.7,13.6,0000.0,0017.44,0003.97,0002.80
2022-05-27 21:15:00,,0821.4,5.01,0.00,29.0,26.7,00.0,37.7,30.6,14.3,0000.0,0016.85,0004.00,0002.79
2022-05-27 21:16:00,,0821.4,5.00,0.00,28.9,26.8,00.0,37.7,30.6,14.4,0000.0,0016.53,0003.99,0002.79
2022-05-27 21:17:00,,0821.4,4.99,0.00,28.9,27.0,00.0,37.7,30.7,14.6,0000.0,0016.12,0003.99,0002.79
2022-05-27 21:18:00,,0821.4,5.00,0.00,28.9,27.2,00.0,37.7,30.7,13.1,0000.0,0016.84,0004.04,0002.79
2022-05-27 21:19:00,,0821.4,5.00,0.00,28.9,27.4,00.0,37.7,30.8,13.3,0000.0,0016.38,0004.02,0002.77
2022-05-27 21:20:00,,0821.4,4.99,0.00,28.9,27.6,00.0,37.8,30.9,12.7,0000.0,0015.20,0003.98,0002.75
2022-05-27 21:21:00,,0821.4,5.01,0.00,29.0,27.8,00.0,37.8,30.9,13.2,0000.0,0014.46,0003.96,0002.75
2022-05-27 21:22:00,,0821.4,5.00,0.00,29.0,28.0,00.0,37.8,31.0,13.6,0000.0,0014.36,0003.90,0002.75
2022-05-27 21:23:00,,0821.3,4.99,0.00,29.1,28.1,00.0,37.8,31.1,14.4,0000.0,0012.96,0003.83,0002.74
2022-05-27 21:24:00,,0821.4,5.00,0.00,29.1,28.2,00.0,37.8,31.1,14.3,0000.0,0012.94,0003.81,0002.74
2022-05-27 21:25:00,,0821.3,5.02,0.00,29.1,27.8,00.0,37.8,31.0,14.7,0000.0,0012.57,0003.76,0002.73
2022-05-27 21:26:00,,0821.3,4.99,0.00,29.0,27.0,00.0,37.8,30.7,14.2,0000.0,0012.18,0003.73,0002.73
2022-05-27 21:27:00,,0821.3,4.99,0.00,29.0,26.8,00.0,37.7,30.6,14.1,0000.0,0012.51,0003.75,0002.74
2022-05-27 21:28:00,,0821.2,5.01,0.00,28.9,26.8,00.0,37.7,30.6,14.1,0000.0,0012.80,0003.72,0002.73
2022-05-27 21:29:00,,0821.2,4.99,0.00,28.9,27.0,00.0,37.7,30.7,14.5,0000.0,0011.97,0003.67,0002.71
2022-05-27 21:30:00,,0821.2,5.00,0.00,28.9,27.2,00.0,37.7,30.7,14.3,0000.0,0011.86,0003.67,0002.72
2022-05-27 21:31:00,,0821.2,4.99,0.00,28.9,27.4,00.0,37.7,30.8,15.0,0000.0,0011.92,0003.68,0002.71
2022-05-27 21:32:00,,0821.2,4.99,0.00,28.9,27.6,00.0,37.8,30.9,13.4,0000.0,0012.13,0003.63,0002.69
2022-05-27 21:33:00,,0821.2,5.00,0.00,29.0,27.8,00.0,37.8,30.9,13.8,0000.0,0011.39,0003.65,0002.68
2022-05-27 21:34:00,,0821.2,5.00,0.00,29.0,28.0,00.0,37.8,31.0,14.0,0000.0,0010.83,0003.69,0002.70
2022-05-27 21:35:00,,0821.1,5.00,0.00,29.1,28.1,00.0,37.8,31.1,15.7,0000.0,0010.54,0003.64,0002.70
2022-05-27 21:36:00,,0821.2,4.99,0.00,29.1,28.3,00.0,37.8,31.1,13.3,0000.0,0010.20,0003.60,0002.70
2022-05-27 21:37:00,,0821.2,5.00,0.00,29.1,28.1,00.0,37.8,31.1,14.4,0000.0,0010.15,0003.60,0002.70
2022-05-27 21:38:00,,0821.2,5.01,0.00,29.1,27.2,00.0,37.8,30.8,13.0,0000.0,0009.90,0003.58,0002.69
2022-05-27 21:39:00,,0821.1,5.00,0.00,29.0,26.8,00.0,37.7,30.7,12.5,0000.0,0009.23,0003.59,0002.69
2022-05-27 21:40:00,,0821.1,5.00,0.00,28.9,26.8,00.0,37.7,30.7,12.6,0000.0,0009.37,0003.61,0002.69
2022-05-27 21:41:00,,0821.1,5.00,0.00,28.9,27.0,00.0,37.7,30.7,14.0,0000.0,0009.92,0003.60,0002.69
2022-05-27 21:42:00,,0821.1,5.00,0.00,28.9,27.1,00.0,37.7,30.7,14.1,0000.0,0010.27,0003.60,0002.70
2022-05-27 21:43:00,,0821.2,5.00,0.00,28.9,27.3,00.0,37.7,30.8,14.6,0000.0,0009.98,0003.58,0002.71
2022-05-27 21:44:00,,0821.1,5.00,0.00,28.9,27.6,00.0,37.8,30.9,14.7,0000.0,0009.52,0003.56,0002.71
2022-05-27 21:45:00,,0821.1,5.00,0.00,29.0,27.7,00.0,37.8,30.9,15.0,0000.0,0009.49,0003.53,0002.69
2022-05-27 21:46:00,,0821.1,5.00,0.00,29.0,27.9,00.0,37.8,31.0,14.2,0000.0,0009.72,0003.53,0002.69
2022-05-27 21:47:00,,0821.1,5.00,0.00,29.1,28.1,00.0,37.8,31.1,14.8,0000.0,0009.88,0003.56,0002.69
2022-05-27 21:48:00,,0821.1,4.99,0.00,29.1,28.2,00.0,37.8,31.1,14.7,0000.0,0010.40,0003.62,0002.72
2022-05-27 21:49:00,,0821.1,5.00,0.00,29.2,28.4,00.0,37.9,31.2,15.0,0000.0,0010.82,0003.61,0002.72
2022-05-27 21:50:00,,0821.1,4.99,0.00,29.2,28.0,00.0,37.9,31.1,14.4,0000.0,0011.58,0003.60,0002.74
2022-05-27 21:51:00,,0821.0,5.01,0.00,29.1,27.2,00.0,37.8,30.9,13.7,0000.0,0011.43,0003.57,0002.74
2022-05-27 21:52:00,,0821.0,4.99,0.00,29.0,26.9,00.0,37.8,30.7,14.4,0000.0,0011.38,0003.59,0002.75
2022-05-27 21:53:00,,0821.0,5.00,0.00,29.0,26.9,00.0,37.8,30.7,14.7,0000.0,0011.84,0003.65,0002.75
2022-05-27 21:54:00,,0821.0,5.01,0.00,29.0,27.1,00.0,37.8,30.8,16.2,0000.0,0012.09,0003.68,0002.77
2022-05-27 21:55:00,,0821.0,5.00,0.00,29.0,27.2,00.0,37.8,30.8,17.0,0000.0,0012.55,0003.72,0002.78
2022-05-27 21:56:00,,0821.0,5.00,0.00,29.0,27.5,00.0,37.8,30.9,16.0,0000.0,0013.31,0003.74,0002.78
2022-05-27 21:57:00,,0821.0,5.00,0.00,29.0,27.7,00.0,37.8,30.9,16.2,0000.0,0013.47,0003.73,0002.78
2022-05-27 21:58:00,,0821.0,5.00,0.00,29.0,27.8,00.0,37.8,31.0,16.6,0000.0,0013.23,0003.76,0002.77
2022-05-27 21:59:00,,0821.0,5.01,0.00,29.1,28.0,00.0,37.8,31.1,16.4,0000.0,0013.13,0003.74,0002.75
